Location: Caltech
(34.1382°N, 118.1253°W)
Time: 11:14:34
(UTC-08:00)

BREEZE M DEB (TANK) - Visible Passes

Search period start: 17 January 2017 00:00
Search period end: 27 January 2017 00:00
Orbit: 316 x 13719 km, 49.6° (Epoch: 16 January)

Date Brightness Start Highest point End Pass type
(mag) Time Alt. Az. Time Alt. Az. Time Alt. Az.
17 Jan 8.7 01:11:15 10° WNW 02:16:34 85° NE 04:05:01 10° SSE visible
17 Jan 9.3 06:03:06 10° NW 07:02:50 27° W 08:12:32 10° SW visible
17 Jan 6.0 17:58:03 10° SSW 18:05:24 52° ESE 18:39:08 10° NE visible
17 Jan 8.2 22:25:50 10° WNW 22:52:04 62° N 01:01:06 10° ESE visible
18 Jan 8.9 03:04:21 10° NW 04:21:32 66° WSW 05:53:13 10° S visible
18 Jan 6.6 19:43:42 10° WSW 19:54:10 76° NNW 21:03:16 10° ENE visible
19 Jan 8.6 00:16:29 10° WNW 01:09:49 76° NE 03:08:20 10° SE visible
19 Jan 9.2 05:02:07 10° NW 06:10:03 36° W 07:29:25 10° SW visible
19 Jan 6.3 17:06:37 10° SSE 17:13:23 34° ESE 17:36:24 10° NE visible
19 Jan 7.9 21:32:00 10° W 21:51:37 61° N 23:51:26 10° E visible
20 Jan 8.8 02:08:32 10° NW 03:21:49 77° WSW 05:00:11 10° SSE visible
20 Jan 6.2 18:50:57 10° SW 18:59:31 89° NW 19:50:58 10° NE visible
20 Jan 8.5 23:22:00 10° WNW 00:02:54 69° NNE 02:09:30 10° SE visible
21 Jan 9.1 04:03:38 10° NW 05:15:39 47° W 06:41:39 10° SSW visible
21 Jan 7.4 20:38:24 10° W 20:53:20 62° N 22:34:55 10° E visible
22 Jan 8.8 01:13:16 10° NW 02:19:38 88° WSW 04:05:51 10° SSE visible
22 Jan 9.4 06:10:51 10° WNW 06:57:36 19° W 07:55:03 10° WSW visible
22 Jan 5.9 17:58:31 10° SSW 18:05:50 71° SE 18:43:57 10° NE visible
22 Jan 8.4 22:27:46 10° WNW 22:58:14 64° NNE 01:07:37 10° ESE visible
23 Jan 9.0 03:06:35 10° NW 04:19:25 57° WSW 05:51:18 10° S visible
23 Jan 7.0 19:45:03 10° WSW 19:56:40 67° NNW 21:14:55 10° ENE visible
24 Jan 8.7 00:18:22 10° NW 01:15:05 83° NE 03:10:02 10° SE visible
24 Jan 9.3 05:06:33 10° NW 06:05:31 29° W 07:19:58 10° SW visible
24 Jan 5.9 17:06:30 10° S 17:13:02 49° ESE 17:40:30 10° NE visible
24 Jan 8.1 21:33:46 10° WNW 21:56:27 61° N 00:01:08 10° ESE visible
25 Jan 8.9 02:10:28 10° NW 03:21:11 68° WSW 04:59:12 10° S visible
25 Jan 6.5 18:51:58 10° WSW 19:01:11 75° NNW 19:58:51 10° ENE visible
25 Jan 8.6 23:23:47 10° WNW 00:09:17 74° NE 02:12:25 10° SE visible
26 Jan 9.2 04:06:37 10° NW 05:11:54 39° W 06:36:03 10° SSW visible
26 Jan 7.7 20:39:57 10° W 20:57:04 59° N 22:48:03 10° E visible
